Location: Logan Volunteer Fire Department
(39.6624°N, 99.5694°W)
Time: 06:51:39
(UTC+00:00)

Daily predictions for brighter satellites

Satellite Brightness Start Highest point End
(mag) Time Altitude Azimuth Time Altitude Azimuth Time Altitude Azimuth
Abrixas rocket 3.1 12:01:14 15° NW 12:03:11 34° NNE 12:05:49 10° E
Aureole 3 3.8 12:00:02 10° N 12:04:20 79° W 12:09:52 10° S
Cosmos 1484 Rocket 3.7 12:01:56 10° NNW 12:05:07 25° WNW 12:08:15 10° SW
BREEZE-M DEB (TANK) 2.7 12:05:27 18° WSW 12:06:26 23° SW 12:08:17 10° SSE
Cosmos 1428 Rocket 4.5 12:02:04 10° SSW 12:08:16 66° W 12:14:25 10° N
Cosmos 407 Rocket 3.9 12:03:44 10° S 12:08:48 67° ESE 12:13:55 10° NNE
H-2A R/B 3.5 12:06:40 10° NNE 12:10:26 57° E 12:14:14 10° S
Cosmos 1626 Rocket 4.1 12:08:21 10° S 12:12:46 66° E 12:17:12 10° NNE
Cosmos 1553 Rocket 4.2 12:06:47 10° N 12:12:54 75° E 12:18:58 10° SSE
Cosmos 1140 Rocket 4.2 12:08:29 10° S 12:13:30 58° ESE 12:18:32 10° NNE
PSLV R/B 3.9 12:09:43 10° S 12:13:54 68° W 12:18:06 10° NNW
Cosmos 2278 3.8 12:10:39 10° NNW 12:16:12 59° WSW 12:21:43 10° S
Okean O Rocket 4.2 12:14:21 10° NE 12:18:02 26° E 12:21:42 10° SSE
Cosmos 2322 Rocket 3.9 12:13:32 10° N 12:18:37 33° ENE 12:23:39 10° ESE
Cosmos 2026 Rocket 4.2 12:14:07 10° SSW 12:20:15 50° WNW 12:26:27 10° N
SL-27 R/B 4.0 12:17:35 10° S 12:20:59 42° ESE 12:24:25 10° NNE
Cosmos 1689 Rocket 2.6 12:18:25 10° SSW 12:21:09 35° W 12:23:53 10° NNW
Meteor PRIRODA 3.9 12:17:58 10° N 12:21:29 46° WNW 12:25:00 10° SSW
Cosmos 1833 Rocket 4.0 12:17:48 10° W 12:21:42 19° NW 12:25:38 10° N
Gblst 52 Del rocket 4.4 12:17:49 10° SW 12:23:27 81° SE 12:29:47 10° NE
Meteor 2-10 Rocket 3.5 12:20:09 10° N 12:25:12 89° E 12:30:19 10° S
CZ-4B R/B 3.4 12:23:24 10° N 12:27:11 38° WNW 12:31:07 10° SW
Meteor 1-31 Rocket 4.2 12:26:43 10° NNW 12:29:32 19° WNW 12:32:21 10° WSW
Lacrosse 5 rocket 3.2 12:30:06 10° NW 12:31:36 12° NNW 12:33:07 10° N
Uosat 12 SS-18 rocket 4.5 12:28:21 10° SSW 12:33:15 73° ESE 12:37:37 10° NE
ATLAS 3B R/B 3.5 12:28:46 10° WSW 12:34:25 30° NW 12:40:10 10° NNE
Meteor 2-15 4.5 12:29:29 10° N 12:35:36 86° W 12:41:39 10° S
Cosmos 1455 2.4 12:31:57 10° N 12:35:50 80° E 12:39:41 10° S
CZ-4B R/B 4.4 12:31:57 10° NNE 12:37:06 47° E 12:42:11 10° S
